Weather History for LFPG - May, 2013

Change the Weather History Date:

Tuesday, May 21, 2013

  Actual Average Record
Temperature  
Mean Temperature 50 °F -  
Max Temperature 51 °F 69 °F 77 °F (2002)
Min Temperature 50 °F 52 °F 43 °F (2015)
Degree Days  
Heating Degree Days 14    
Moisture  
Dew Point 50 °F    
Average Humidity 94    
Maximum Humidity 100    
Minimum Humidity 88    
Precipitation  
Precipitation 0.00 in - - ()
Sea Level Pressure  
Sea Level Pressure 29.90 in    
Wind  
Wind Speed 7 mph ()    
Max Wind Speed 15 mph    
Max Gust Speed -    
Visibility 4.0 miles    
Events Rain    
Averages and records for this station are not official NWS values.
T = Trace of Precipitation, MM = Missing Value Source: Averaged Metar Reports

Daily Weather History Graph

Daily Weather History Graph

Search for Another Location

Airport or City:

Trip Planner

Search our weather history database for the weather conditions in past years. The results will help you decide how hot, cold, wet, or windy it might be!

Date:

Astronomy

May. 21, 2013 Rise Set
Actual Time 6:00 AM CEST 9:33 PM CEST
Civil Twilight 5:20 AM CEST 10:13 PM CEST
Nautical Twilight 4:28 AM CEST 11:06 PM CEST
Astronomical Twilight 3:15 AM CEST 12:20 AM CEST
Moon 5:10 PM CEST (5/21) 3:41 AM CEST (5/21)
Length of Visible Light 16h 52m
Length of Day
15h 33m
Waxing Gibbous, 81% of the Moon is Illuminated
May 21
Waxing Gibbous
May 25
Full
May 31
Last Quarter
Jun 8
New
Jun 16
First Quarter

Hourly Weather History & Observations

Time (CEST) Temp. Dew Point Humidity Pressure Visibility Wind Dir Wind Speed Gust Speed Precip Events Conditions
12:00 AM 51.8 °F 50.0 °F 94% 29.83 in 2.5 mi WSW 3.5 mph - N/A Rain Light Rain
1:30 AM 51.8 °F 50.0 °F 94% 29.83 in 1.9 mi WSW 3.5 mph - N/A Rain Light Rain
2:00 AM 51.8 °F 50.0 °F 94% 29.83 in 1.9 mi WSW 3.5 mph - N/A Rain Light Rain
2:30 AM 51.8 °F 50.0 °F 94% 29.83 in 1.6 mi West 3.5 mph - N/A Rain Light Rain
3:00 AM 51.8 °F 50.0 °F 94% 29.83 in 1.9 mi WSW 4.6 mph - N/A Rain Light Rain
3:30 AM 51.8 °F 50.0 °F 94% 29.83 in 1.9 mi WNW 4.6 mph - N/A Rain Light Rain
4:00 AM 51.8 °F 50.0 °F 94% 29.80 in 3.7 mi NW 4.6 mph - N/A Rain Light Rain
4:30 AM 51.8 °F 50.0 °F 94% 29.80 in 3.7 mi NW 3.5 mph - N/A Rain Light Rain
5:00 AM 51.8 °F 50.0 °F 94% 29.80 in 3.1 mi NNW 8.1 mph - N/A Rain Light Rain
5:30 AM 51.8 °F 50.0 °F 94% 29.80 in 2.8 mi North 5.8 mph - N/A Rain Light Rain
6:00 AM 51.8 °F 50.0 °F 94% 29.80 in 3.7 mi North 8.1 mph - N/A Rain Light Rain
6:30 AM 51.8 °F 50.0 °F 94% 29.80 in 2.8 mi North 8.1 mph - N/A Rain Rain
7:00 AM 51.8 °F 50.0 °F 94% 29.83 in 2.8 mi North 8.1 mph - N/A Rain Light Rain
7:30 AM 51.8 °F 50.0 °F 94% 29.83 in 3.1 mi North 8.1 mph - N/A Rain Light Rain
8:00 AM 50.0 °F 50.0 °F 100% 29.83 in 3.7 mi North 9.2 mph - N/A Rain Light Rain
8:30 AM 50.0 °F 50.0 °F 100% 29.83 in 3.7 mi North 10.4 mph - N/A Rain Light Rain
9:00 AM 51.8 °F 50.0 °F 94% 29.86 in 6.2 mi North 9.2 mph - N/A Rain Light Rain
9:30 AM 51.8 °F 50.0 °F 94% 29.86 in 6.2 mi North 8.1 mph - N/A Rain Light Rain
10:00 AM 50.0 °F 50.0 °F 100% 29.86 in 6.2 mi North 9.2 mph - N/A Rain Light Rain
10:30 AM 50.0 °F 48.2 °F 94% 29.89 in 6.2 mi North 8.1 mph - N/A   Mostly Cloudy
11:00 AM 51.8 °F 50.0 °F 94% 29.89 in 6.2 mi North 9.2 mph - N/A   Mostly Cloudy
11:30 AM 51.8 °F 48.2 °F 88% 29.89 in 6.2 mi North 10.4 mph - N/A   Mostly Cloudy
12:00 PM 51.8 °F 50.0 °F 94% 29.89 in 5.0 mi North 10.4 mph - N/A   Mostly Cloudy
12:30 PM 50.0 °F 48.2 °F 94% 29.92 in 3.7 mi North 8.1 mph - N/A   Light Drizzle
1:00 PM 50.0 °F 48.2 °F 94% 29.92 in 3.1 mi NNW 11.5 mph - N/A   Light Drizzle
1:30 PM 50.0 °F 50.0 °F 100% 29.92 in 2.5 mi North 9.2 mph - N/A   Light Drizzle
2:00 PM 51.8 °F 50.0 °F 94% 29.92 in 2.2 mi NNW 9.2 mph - N/A   Light Drizzle
2:30 PM 51.8 °F 50.0 °F 94% 29.92 in 3.7 mi North 10.4 mph - N/A Rain Light Rain
3:00 PM 51.8 °F 50.0 °F 94% 29.92 in 3.7 mi North 11.5 mph - N/A Rain Light Rain
3:30 PM 51.8 °F 50.0 °F 94% 29.95 in 3.7 mi NNW 11.5 mph - N/A Rain Light Rain
4:00 PM 51.8 °F 50.0 °F 94% 29.95 in 3.7 mi NNW 11.5 mph - N/A   Overcast
4:30 PM 51.8 °F 50.0 °F 94% 29.95 in 3.7 mi NNW 13.8 mph - N/A   Overcast
5:00 PM 51.8 °F 50.0 °F 94% 29.95 in 3.7 mi North 15.0 mph - N/A   Overcast
5:30 PM 51.8 °F 50.0 °F 94% 29.95 in 3.7 mi North 11.5 mph - N/A   Light Drizzle
6:00 PM 51.8 °F 50.0 °F 94% 29.95 in 5.0 mi NNW 8.1 mph - N/A   Light Drizzle
6:30 PM 51.8 °F 50.0 °F 94% 29.95 in 2.5 mi North 8.1 mph - N/A   Light Drizzle
7:00 PM 51.8 °F 50.0 °F 94% 29.95 in 5.0 mi North 8.1 mph - N/A   Light Drizzle
7:30 PM 51.8 °F 50.0 °F 94% 29.95 in 6.2 mi North 8.1 mph - N/A   Mostly Cloudy
8:00 PM 51.8 °F 50.0 °F 94% 29.98 in 6.2 mi NNW 6.9 mph - N/A   Mostly Cloudy
8:30 PM 51.8 °F 50.0 °F 94% 29.98 in 6.2 mi NNW 9.2 mph - N/A   Mostly Cloudy
9:00 PM 51.8 °F 48.2 °F 88% 29.98 in 2.2 mi North 9.2 mph - N/A   Light Drizzle
9:30 PM 51.8 °F 48.2 °F 88% 29.98 in 5.0 mi North 10.4 mph - N/A   Mostly Cloudy
10:00 PM 50.0 °F 48.2 °F 94% 30.01 in 6.2 mi NNW 10.4 mph - N/A   Light Drizzle
10:30 PM 50.0 °F 48.2 °F 94% 30.01 in 6.2 mi North 10.4 mph - N/A   Light Drizzle
11:00 PM 50.0 °F 48.2 °F 94% 30.01 in 3.1 mi NNW 10.4 mph - N/A   Light Drizzle
11:30 PM 50.0 °F 48.2 °F 94% 30.01 in 4.3 mi NNW 11.5 mph - N/A   Light Drizzle